Theta_e
309 309 310 309 310 312 312 313 312 314 316 316 321 321 325 327 331 337 342 342 344 333 328 325 322 324 325 329 339 343 343 345
306 306 306 308 308 309 309 310 311 313 314 312 318 320 324 322 328 334 338 340 335 323 323 323 324 320 320 331 340 341 340 341
303 304 304 306 306 307 309 310 311 311 309 310 314 320 322 322 323 328 334 326 324 328 322 323 331 321 330 334 334 334 337 337
302 303 304 304 305 305 305 304 305 308 307 308 311 315 318 319 320 320 317 321 319 323 329 322 322 333 316 316 327 332 334 332
300 300 300 301 301 303 302 302 303 304 304 307 309 310 313 317 317 317 317 318 325 328 326 326 326 325 310 310 318 331 332 331
297 297 298 299 300 300 300 301 303 302 301 304 306 309 309 314 316 316 317 316 320 329 328 327 327 324 306 307 314 332 332 333
297 297 297 297 297 298 299 300 301 300 302 302 304 308 308 310 315 316 318 314 315 330 331 330 328 316 302 306 319 331 328 328
294 294 294 294 295 296 296 297 297 299 301 302 304 307 307 307 314 315 315 315 314 321 331 330 320 320 300 304 320 325 325 324
294 293 292 292 293 293 292 294 294 297 299 303 303 304 305 310 308 318 313 314 315 317 324 331 326 318 309 300 307 322 322 321
292 291 291 293 294 293 292 292 295 297 297 298 301 303 304 307 307 313 316 312 311 312 319 322 326 318 307 299 299 307 310 319
291 291 292 293 294 294 293 293 295 296 296 295 296 301 302 304 305 307 313 313 310 310 315 319 323 318 312 301 298 298 299 317
292 292 291 292 294 295 296 297 297 296 295 295 296 297 301 304 303 307 310 312 312 312 313 315 319 319 314 309 306 304 300 305
291 291 290 291 294 294 295 297 298 298 297 295 295 296 298 300 302 304 309 314 313 312 313 314 313 316 317 310 309 311 312 309
290 290 290 292 293 295 298 299 298 298 296 295 295 296 296 298 301 303 299 298 298 301 302 310 315 307 305 303 301 304 304 300
289 289 291 291 293 295 298 298 299 298 296 295 295 296 297 298 301 303 304 301 296 296 297 296 299 306 300 300 299 299 298 298
290 290 290 290 291 292 295 299 299 298 297 295 297 296 299 300 300 304 304 305 304 307 298 299 298 298 298 297 295 298 302 302
289 289 288 289 289 290 293 300 299 299 299 298 299 299 299 300 301 303 304 305 305 304 308 298 295 294 293 292 292 312 309 309
287 286 287 287 288 289 293 299 302 302 301 295 297 300 300 301 301 302 303 303 303 303 303 306 301 302 306 307 307 310 313 312
289 288 287 287 287 289 294 298 297 304 302 302 296 301 301 301 301 301 302 302 302 301 302 304 289 306 307 308 308 309 310 311
290 288 288 287 288 289 292 294 295 303 304 302 302 303 301 301 302 303 302 302 302 303 302 303 291 306 310 310 310 310 311 312
Wind_Speed
17 14 15 15 16 14 13 11 15 17 15 15 8 15 13 15 16 13 17 18 20 5 5 11 7 9 11 20 15 11 14 12
17 17 17 17 17 18 17 17 19 15 14 14 11 11 11 13 15 13 17 19 8 8 5 12 10 6 10 27 16 8 10 11
20 21 21 21 19 18 17 17 15 16 15 20 14 10 10 12 14 14 17 10 12 13 11 6 11 16 20 23 10 7 7 13
23 21 21 22 18 17 17 17 17 18 20 17 18 18 12 10 11 11 14 11 9 14 18 21 20 21 24 17 11 9 8 10
25 26 25 23 22 20 21 20 20 19 21 21 19 18 19 9 7 8 15 19 16 16 18 23 22 11 22 16 15 10 9 9
28 24 23 21 21 21 19 19 19 18 20 22 20 19 19 16 4 4 3 11 16 7 7 8 10 6 20 19 17 12 10 9
20 21 22 21 20 20 20 19 19 20 20 18 20 21 19 18 8 9 3 7 16 5 5 6 10 8 11 21 16 10 10 9
21 23 22 20 18 17 19 18 17 19 19 19 20 18 18 17 14 9 9 3 13 13 3 6 11 12 7 18 14 10 9 7
22 21 18 18 18 16 18 17 18 16 16 16 16 18 17 18 9 9 7 7 5 12 9 4 11 13 9 9 13 12 9 6
21 19 18 17 16 15 18 17 16 14 15 15 18 15 14 13 8 11 9 10 4 5 12 5 7 11 15 9 10 12 8 9
18 17 19 17 15 14 16 16 15 14 14 14 15 16 14 11 9 11 8 9 11 6 12 5 2 4 5 13 12 10 11 3
18 18 17 17 15 15 14 15 15 15 14 13 12 13 12 13 9 9 8 9 10 15 12 7 4 5 7 10 7 5 9 3
17 16 16 17 16 16 15 15 13 11 10 11 10 9 12 10 10 8 8 10 9 11 12 10 8 6 4 7 11 7 6 7
18 17 17 17 17 16 15 12 13 13 8 7 7 6 7 9 9 9 5 3 11 9 10 13 9 7 14 11 17 17 16 15
18 19 17 17 17 17 17 12 12 9 5 5 4 6 6 8 10 9 8 3 9 1 14 10 8 8 10 20 19 17 18 14
18 17 17 17 17 17 17 10 8 7 6 4 2 4 4 7 6 6 5 5 3 5 4 6 8 9 8 15 20 15 5 3
16 15 17 18 18 18 18 14 7 6 1 2 2 3 4 4 5 5 6 5 5 5 3 5 7 10 12 10 1 13 12 10
18 16 18 18 18 19 18 17 4 3 2 3 1 0 1 1 3 1 1 3 2 3 5 2 6 4 3 3 5 5 7 8
16 14 16 16 18 19 18 17 16 3 2 1 2 2 2 5 3 3 3 2 3 6 8 8 5 4 9 9 8 7 7 8
18 18 22 21 20 18 17 18 17 9 3 1 3 2 3 1 4 4 3 3 4 5 11 12 6 6 8 9 11 11 10 9
Wind_Direction
336 317 317 333 334 320 296 287 289 299 288 296 292 295 310 307 298 249 243 231 235 203 118 90 58 53 15 303 237 172 171 182
328 323 325 327 323 315 306 322 327 294 276 283 283 288 305 309 299 264 247 240 200 126 126 143 155 147 188 241 225 183 171 183
320 320 316 310 308 310 316 315 301 311 320 324 289 275 283 305 313 313 270 182 165 151 165 189 157 167 221 218 194 184 157 163
313 311 320 319 313 304 299 301 307 312 309 307 302 297 274 286 309 326 328 212 187 178 168 163 230 211 183 190 166 142 134 128
317 310 305 299 297 297 293 290 294 287 290 292 292 291 294 263 303 345 315 332 180 187 194 179 191 183 155 161 144 140 139 144
304 300 294 292 291 285 280 278 271 272 276 278 281 281 281 281 220 265 31 299 313 172 176 169 161 151 159 155 149 144 146 140
303 302 297 295 291 288 280 277 270 263 260 263 276 280 274 288 246 233 237 321 329 211 166 158 147 139 186 152 144 146 134 133
306 305 302 299 296 292 287 278 274 267 255 259 257 266 287 268 273 225 218 250 311 315 218 168 143 148 204 150 138 142 134 140
306 303 298 293 292 290 284 282 273 272 274 267 260 260 266 279 311 250 217 212 239 292 295 225 146 145 165 180 145 137 143 146
312 306 301 298 290 283 279 274 275 270 267 266 269 253 258 270 253 283 200 190 232 304 296 292 164 163 154 186 142 121 125 169
312 306 306 306 299 287 282 278 274 262 252 256 256 264 250 250 284 266 253 195 184 216 246 237 157 143 156 178 171 157 116 127
318 316 314 312 313 304 291 283 271 255 237 233 246 252 244 242 245 273 257 216 192 195 241 224 186 161 188 186 181 149 107 137
325 326 324 316 317 313 303 295 288 281 242 218 221 233 234 244 247 247 250 236 215 207 216 228 209 170 112 229 171 174 165 183
332 332 325 328 321 312 314 324 314 288 218 195 210 212 224 236 237 232 241 169 310 188 207 213 233 172 145 176 215 170 163 161
337 333 328 331 327 331 341 342 348 17 88 154 187 209 217 225 218 214 222 82 70 147 130 108 81 218 199 169 205 169 176 150
337 333 341 337 335 337 341 342 8 32 58 104 197 203 240 215 251 212 232 262 182 190 92 111 113 101 118 175 156 134 143 191
341 343 348 346 344 339 333 328 11 13 54 153 250 195 266 224 230 236 228 240 265 346 154 51 74 88 89 76 268 177 179 185
355 353 350 347 346 337 333 328 317 359 38 57 69 152 305 122 55 323 313 191 205 275 324 232 142 110 132 173 205 237 203 199
359 356 355 354 347 340 340 352 345 314 23 101 318 259 189 179 164 177 177 206 191 240 264 286 335 229 182 194 202 220 232 235
2 9 9 359 350 347 350 354 345 332 306 285 297 213 218 251 198 163 178 205 205 224 217 258 295 305 277 219 213 216 220 232